EWG9HE EDDK-LEPA

Flight info

Callsign EWG9HE
Flight time 2h 2m
Altitude 35000
Route NVO2D NVO Y868 NAVAK Z283 SOPOK DCT ROUSY DCT GTQ DCT POGOL DCT LASAT DCT MOROK DCT GILIR DCT GEVEA DCT INCUS DCT BALSI DCT RETNO DCT TUPOX DCT MTG DCT DIVKO DCT VATIR DCT PIVUS DCT BODEQ DCT VERSO L129 LUNIK
Aircraft B738/M-SDE2E3FGHIRWXY/LB1

Departure

Time 2026-05-04 14:32
Airport Cologne Bonn Airport (EDDK)

Arrival

Time 2026-05-04 16:34
Airport Palma de Mallorca Airport (LEPA)
Time Latitude Longitude Altitude Speed Heading
2026-05-04 14:09 50.87938 7.12303 229 ft 0 kts 175°
2026-05-04 14:23 50.87951 7.12302 229 ft 4 kts 179°
2026-05-04 14:24 50.87975 7.12301 232 ft 1 kts 175°
2026-05-04 14:24 50.87999 7.12301 233 ft 4 kts 197°
2026-05-04 14:24 50.88023 7.12320 232 ft 4 kts 217°
2026-05-04 14:24 50.88042 7.12342 230 ft 4 kts 205°
2026-05-04 14:25 50.88066 7.12347 229 ft 4 kts 156°
2026-05-04 14:25 50.88101 7.12288 232 ft 4 kts 112°
2026-05-04 14:25 50.88104 7.12274 232 ft 0 kts 107°
2026-05-04 14:29 50.88083 7.12354 230 ft 6 kts 123°
2026-05-04 14:29 50.88011 7.12546 230 ft 13 kts 124°
2026-05-04 14:30 50.87983 7.12638 231 ft 5 kts 91°
2026-05-04 14:30 50.87990 7.12697 231 ft 5 kts 81°
2026-05-04 14:30 50.88007 7.12911 237 ft 12 kts 96°
2026-05-04 14:31 50.87970 7.13020 239 ft 12 kts 137°
2026-05-04 14:31 50.87160 7.14194 257 ft 146 kts 137°
2026-05-04 14:32 50.85371 7.16804 1388 ft 186 kts 140°
2026-05-04 14:32 50.84405 7.18161 2380 ft 185 kts 142°
2026-05-04 14:32 50.83437 7.19503 3300 ft 184 kts 142°
2026-05-04 14:32 50.82483 7.20825 4187 ft 181 kts 142°
2026-05-04 14:33 50.81519 7.22158 4773 ft 193 kts 142°
2026-05-04 14:33 50.80448 7.23627 4954 ft 213 kts 144°
2026-05-04 14:33 50.79072 7.24529 5205 ft 222 kts 180°
2026-05-04 14:33 50.77536 7.24169 5684 ft 226 kts 201°
2026-05-04 14:34 50.76246 7.22755 6291 ft 230 kts 228°
2026-05-04 14:34 50.75430 7.20561 7010 ft 233 kts 244°
2026-05-04 14:34 50.74974 7.18088 7658 ft 241 kts 266°
2026-05-04 14:34 50.75204 7.15361 7952 ft 265 kts 278°
2026-05-04 14:35 50.75609 7.12432 8334 ft 279 kts 279°
2026-05-04 14:35 50.76045 7.09423 8948 ft 283 kts 279°
2026-05-04 14:35 50.76483 7.06386 9665 ft 285 kts 279°
2026-05-04 14:35 50.76921 7.03310 10298 ft 290 kts 280°
2026-05-04 14:36 50.77372 7.00076 10481 ft 313 kts 280°
2026-05-04 14:36 50.77851 6.96603 10648 ft 335 kts 280°
2026-05-04 14:36 50.78359 6.92896 10795 ft 355 kts 280°
2026-05-04 14:36 50.78888 6.89024 11174 ft 365 kts 280°
2026-05-04 14:37 50.79425 6.85085 11787 ft 369 kts 280°
2026-05-04 14:37 50.79964 6.81105 12451 ft 371 kts 280°
2026-05-04 14:37 50.80505 6.77101 13071 ft 375 kts 280°
2026-05-04 14:37 50.81043 6.73103 13682 ft 378 kts 280°
2026-05-04 14:38 50.81591 6.69017 14259 ft 381 kts 280°
2026-05-04 14:38 50.82140 6.64907 14858 ft 383 kts 279°
2026-05-04 14:38 50.82520 6.60740 15440 ft 383 kts 271°
2026-05-04 14:38 50.82605 6.56517 15999 ft 386 kts 269°
2026-05-04 14:39 50.82596 6.52247 16448 ft 391 kts 268°
2026-05-04 14:39 50.82576 6.47927 17034 ft 393 kts 268°
2026-05-04 14:39 50.82573 6.43589 17614 ft 395 kts 268°
2026-05-04 14:40 50.82620 6.34836 18689 ft 400 kts 268°
2026-05-04 14:40 50.82658 6.30425 19217 ft 403 kts 268°
2026-05-04 14:40 50.82700 6.25972 19781 ft 405 kts 268°
2026-05-04 14:40 50.82741 6.21505 20246 ft 407 kts 268°
2026-05-04 14:41 50.82780 6.17022 20743 ft 408 kts 268°
2026-05-04 14:41 50.82818 6.12574 21189 ft 410 kts 268°
2026-05-04 14:41 50.82888 6.03484 21909 ft 418 kts 267°
2026-05-04 14:42 50.82050 5.94546 22760 ft 410 kts 240°
2026-05-04 14:42 50.80448 5.90861 23257 ft 406 kts 226°
2026-05-04 14:42 50.78339 5.87925 23644 ft 406 kts 212°
2026-05-04 14:43 50.75873 5.85738 23970 ft 407 kts 207°
2026-05-04 14:43 50.73359 5.83645 24276 ft 410 kts 207°
2026-05-04 14:43 50.70829 5.81525 24522 ft 413 kts 208°
2026-05-04 14:43 50.68289 5.79362 24816 ft 416 kts 208°
2026-05-04 14:44 50.65747 5.77172 25170 ft 416 kts 208°
2026-05-04 14:44 50.63210 5.74980 25501 ft 417 kts 208°
2026-05-04 14:44 50.60571 5.73060 25793 ft 419 kts 198°
2026-05-04 14:44 50.57735 5.72033 26252 ft 418 kts 189°
2026-05-04 14:45 50.54841 5.71694 26689 ft 418 kts 180°
2026-05-04 14:45 50.51929 5.72121 26999 ft 422 kts 175°
2026-05-04 14:45 50.49012 5.72730 27257 ft 425 kts 174°
2026-05-04 14:45 50.46067 5.73355 27515 ft 428 kts 174°
2026-05-04 14:46 50.43112 5.73965 27813 ft 429 kts 175°
2026-05-04 14:46 50.40145 5.74556 28132 ft 430 kts 175°
2026-05-04 14:46 50.37170 5.75133 28432 ft 431 kts 175°
2026-05-04 14:46 50.34187 5.75704 28737 ft 433 kts 175°
2026-05-04 14:47 50.32198 5.76083 28912 ft 434 kts 175°
2026-05-04 14:47 50.28223 5.76841 29353 ft 434 kts 175°
2026-05-04 14:47 50.25234 5.77457 29768 ft 432 kts 173°
2026-05-04 14:47 50.22308 5.78544 30165 ft 432 kts 167°
2026-05-04 14:48 50.20395 5.79405 30389 ft 432 kts 167°
2026-05-04 14:48 50.17505 5.80739 30691 ft 431 kts 166°
2026-05-04 14:48 50.14637 5.82066 31017 ft 430 kts 167°
2026-05-04 14:48 50.11770 5.83379 31351 ft 428 kts 167°
2026-05-04 14:49 50.08918 5.84668 31690 ft 426 kts 167°
2026-05-04 14:49 50.06068 5.85942 32000 ft 425 kts 167°
2026-05-04 14:49 50.03227 5.87203 32295 ft 424 kts 167°
2026-05-04 14:49 50.00396 5.88455 32645 ft 422 kts 167°
2026-05-04 14:50 49.97571 5.89701 32953 ft 421 kts 167°
2026-05-04 14:50 49.94757 5.90940 33219 ft 420 kts 168°
2026-05-04 14:50 49.91948 5.92175 33450 ft 420 kts 168°
2026-05-04 14:50 49.89122 5.93415 33613 ft 422 kts 168°
2026-05-04 14:51 49.86299 5.94654 33855 ft 421 kts 168°
2026-05-04 14:51 49.83484 5.95889 34146 ft 419 kts 168°
2026-05-04 14:51 49.80677 5.97119 34329 ft 420 kts 168°
2026-05-04 14:51 49.77856 5.98352 34420 ft 422 kts 168°
2026-05-04 14:52 49.75028 5.99587 34565 ft 423 kts 168°
2026-05-04 14:52 49.72193 6.00825 34784 ft 422 kts 168°
2026-05-04 14:52 49.69365 6.02058 34967 ft 423 kts 168°
2026-05-04 14:52 49.66530 6.03293 35105 ft 424 kts 168°
2026-05-04 14:53 49.63688 6.04529 35272 ft 424 kts 168°
2026-05-04 14:53 49.60850 6.05762 35450 ft 424 kts 168°
2026-05-04 14:53 49.58004 6.06997 35606 ft 424 kts 168°
2026-05-04 14:53 49.55168 6.08227 35862 ft 423 kts 168°
2026-05-04 14:54 49.52340 6.09451 36044 ft 423 kts 168°
2026-05-04 14:54 49.49540 6.10659 36171 ft 424 kts 168°
2026-05-04 14:54 49.43743 6.11833 36414 ft 419 kts 181°
2026-05-04 14:55 49.40829 6.11954 36599 ft 419 kts 181°
2026-05-04 14:55 49.37907 6.12077 36734 ft 420 kts 181°
2026-05-04 14:55 49.34989 6.12207 36858 ft 420 kts 181°
2026-05-04 14:55 49.32063 6.12347 36981 ft 421 kts 181°
2026-05-04 14:56 49.26198 6.12646 36995 ft 421 kts 180°
2026-05-04 14:56 49.20373 6.12957 36998 ft 417 kts 180°
2026-05-04 14:57 49.14588 6.13266 36994 ft 415 kts 180°
2026-05-04 14:57 49.08836 6.13572 36993 ft 413 kts 180°
2026-05-04 14:58 49.03105 6.13876 36995 ft 412 kts 180°
2026-05-04 14:58 48.97356 6.14178 37007 ft 416 kts 180°
2026-05-04 14:59 48.91526 6.14484 36999 ft 421 kts 180°
2026-05-04 15:00 48.82667 6.14950 36996 ft 427 kts 180°
2026-05-04 15:00 48.76708 6.15263 36993 ft 428 kts 180°
2026-05-04 15:01 48.67900 6.15728 36985 ft 418 kts 180°
2026-05-04 15:01 48.62125 6.16028 36997 ft 417 kts 180°
2026-05-04 15:02 48.56326 6.16329 36993 ft 417 kts 180°
2026-05-04 15:02 48.50716 6.16619 37005 ft 417 kts 180°
2026-05-04 15:03 48.44907 6.16919 36992 ft 418 kts 180°
2026-05-04 15:03 48.39085 6.17220 36997 ft 419 kts 180°
2026-05-04 15:04 48.33322 6.17517 36998 ft 421 kts 180°
2026-05-04 15:04 48.27458 6.17819 36998 ft 422 kts 180°
2026-05-04 15:05 48.21576 6.18120 37001 ft 423 kts 181°
2026-05-04 15:05 48.15675 6.18422 36998 ft 424 kts 181°
2026-05-04 15:06 48.09774 6.18724 37003 ft 424 kts 181°
2026-05-04 15:07 48.00969 6.19173 37012 ft 423 kts 181°
2026-05-04 15:07 47.95043 6.19474 37016 ft 423 kts 181°
2026-05-04 15:08 47.89195 6.19770 37014 ft 423 kts 181°
2026-05-04 15:08 47.83310 6.20068 37002 ft 423 kts 181°
2026-05-04 15:09 47.77443 6.20364 37015 ft 421 kts 181°
2026-05-04 15:09 47.71594 6.20659 37024 ft 420 kts 181°
2026-05-04 15:10 47.62846 6.21097 37020 ft 419 kts 181°
2026-05-04 15:11 47.54099 6.21535 37022 ft 419 kts 181°
2026-05-04 15:11 47.48266 6.21825 37012 ft 420 kts 181°
2026-05-04 15:12 47.42412 6.22116 37016 ft 421 kts 181°
2026-05-04 15:12 47.36549 6.22407 37018 ft 422 kts 181°
2026-05-04 15:13 47.30669 6.22698 36992 ft 423 kts 181°
2026-05-04 15:13 47.24813 6.22988 37003 ft 424 kts 181°
2026-05-04 15:14 47.18912 6.23280 37007 ft 424 kts 182°
2026-05-04 15:14 47.13023 6.23570 37013 ft 424 kts 182°
2026-05-04 15:15 47.07125 6.23857 37024 ft 424 kts 182°
2026-05-04 15:15 47.01245 6.23398 37015 ft 423 kts 189°
2026-05-04 15:16 46.92474 6.22096 37012 ft 422 kts 189°
2026-05-04 15:17 46.83717 6.20881 37023 ft 421 kts 189°
2026-05-04 15:17 46.74977 6.19719 37032 ft 420 kts 189°
2026-05-04 15:18 46.69169 6.18951 37044 ft 419 kts 189°
2026-05-04 15:19 46.60494 6.17803 37044 ft 419 kts 189°
2026-05-04 15:19 46.51785 6.16656 37048 ft 419 kts 189°
2026-05-04 15:20 46.45978 6.15892 37052 ft 419 kts 189°
2026-05-04 15:20 46.40167 6.15130 37062 ft 419 kts 189°
2026-05-04 15:21 46.34363 6.14370 37079 ft 419 kts 189°
2026-05-04 15:22 46.25637 6.13228 37081 ft 420 kts 190°
2026-05-04 15:22 46.16985 6.11413 37079 ft 419 kts 193°
2026-05-04 15:23 46.11231 6.10080 37075 ft 419 kts 193°
2026-05-04 15:23 46.05458 6.08786 37053 ft 420 kts 193°
2026-05-04 15:24 45.93870 6.06236 37034 ft 422 kts 193°
2026-05-04 15:25 45.88073 6.04965 37051 ft 421 kts 193°
2026-05-04 15:26 45.79393 6.03056 37033 ft 421 kts 193°
2026-05-04 15:26 45.70750 6.01150 37053 ft 421 kts 193°
2026-05-04 15:27 45.62085 5.99247 37044 ft 419 kts 193°
2026-05-04 15:28 45.53435 5.97353 37038 ft 419 kts 193°
2026-05-04 15:29 45.44831 5.95304 37045 ft 417 kts 196°
2026-05-04 15:30 45.25053 5.89039 37032 ft 415 kts 197°
2026-05-04 15:31 45.16589 5.86411 37026 ft 415 kts 197°
2026-05-04 15:32 45.02439 5.82039 36976 ft 416 kts 197°
2026-05-04 15:34 44.88327 5.77718 37008 ft 415 kts 197°
2026-05-04 15:34 44.79914 5.75124 37007 ft 414 kts 197°
2026-05-04 15:35 44.71492 5.72552 37008 ft 412 kts 197°
2026-05-04 15:36 44.63099 5.69998 37034 ft 411 kts 197°
2026-05-04 15:36 44.57504 5.68299 37022 ft 411 kts 197°
2026-05-04 15:37 44.51915 5.66605 37016 ft 411 kts 197°
2026-05-04 15:37 44.46352 5.64917 37007 ft 408 kts 197°
2026-05-04 15:38 44.41737 5.63528 37025 ft 409 kts 197°
2026-05-04 15:38 44.36258 5.61543 37021 ft 404 kts 206°
2026-05-04 15:39 44.31049 5.58628 37032 ft 404 kts 206°
2026-05-04 15:40 44.23206 5.54276 37023 ft 405 kts 205°
2026-05-04 15:40 44.17951 5.51395 37023 ft 406 kts 205°
2026-05-04 15:41 44.12692 5.48521 37034 ft 407 kts 205°
2026-05-04 15:41 44.07419 5.45644 37009 ft 407 kts 205°
2026-05-04 15:42 44.02148 5.42774 37013 ft 407 kts 205°
2026-05-04 15:42 43.96887 5.39916 37022 ft 406 kts 205°
2026-05-04 15:43 43.91630 5.37074 37007 ft 405 kts 205°
2026-05-04 15:43 43.86388 5.34249 37000 ft 403 kts 205°
2026-05-04 15:44 43.81207 5.31459 37003 ft 402 kts 205°
2026-05-04 15:44 43.76000 5.28659 36999 ft 401 kts 205°
2026-05-04 15:45 43.70801 5.25870 36972 ft 400 kts 205°
2026-05-04 15:45 43.65620 5.23095 36989 ft 399 kts 205°
2026-05-04 15:46 43.60446 5.20328 36994 ft 398 kts 205°
2026-05-04 15:46 43.55275 5.17568 36995 ft 398 kts 205°
2026-05-04 15:47 43.50108 5.14815 36983 ft 399 kts 205°
2026-05-04 15:47 43.44927 5.12059 36988 ft 399 kts 205°
2026-05-04 15:48 43.39758 5.09291 37001 ft 398 kts 208°
2026-05-04 15:48 43.32812 5.03279 36984 ft 394 kts 217°
2026-05-04 15:49 43.28301 4.98994 36976 ft 394 kts 217°
2026-05-04 15:49 43.23778 4.94732 36994 ft 394 kts 217°
2026-05-04 15:50 43.19244 4.90474 36983 ft 395 kts 217°
2026-05-04 15:50 43.14711 4.86223 36953 ft 395 kts 217°
2026-05-04 15:51 43.10175 4.81976 36949 ft 395 kts 217°
2026-05-04 15:51 43.05631 4.77745 36947 ft 395 kts 216°
2026-05-04 15:52 43.00845 4.74025 36949 ft 396 kts 212°
2026-05-04 15:52 42.96007 4.70399 36938 ft 396 kts 212°
2026-05-04 15:53 42.91186 4.66775 36924 ft 396 kts 212°
2026-05-04 15:53 42.86372 4.63146 36947 ft 395 kts 213°
2026-05-04 15:54 42.81586 4.59538 36936 ft 396 kts 213°
2026-05-04 15:54 42.76762 4.55907 36942 ft 397 kts 212°
2026-05-04 15:55 42.71921 4.52269 36933 ft 399 kts 212°
2026-05-04 15:55 42.67068 4.48630 36932 ft 398 kts 212°
2026-05-04 15:56 42.62220 4.45001 36930 ft 398 kts 212°
2026-05-04 15:56 42.57378 4.41383 36917 ft 397 kts 212°
2026-05-04 15:57 42.52538 4.37772 36911 ft 397 kts 212°
2026-05-04 15:57 42.47697 4.34168 36917 ft 396 kts 212°
2026-05-04 15:58 42.42858 4.30571 36916 ft 397 kts 212°
2026-05-04 15:58 42.38004 4.26969 36912 ft 397 kts 212°
2026-05-04 15:59 42.33157 4.23379 36917 ft 397 kts 212°
2026-05-04 15:59 42.28318 4.19801 36916 ft 397 kts 212°
2026-05-04 16:00 42.23477 4.16226 36928 ft 396 kts 212°
2026-05-04 16:00 42.18681 4.12693 36919 ft 395 kts 212°
2026-05-04 16:01 42.13864 4.09148 36904 ft 394 kts 212°
2026-05-04 16:01 42.09068 4.05620 36903 ft 392 kts 212°
2026-05-04 16:02 42.04285 4.02107 36909 ft 391 kts 212°
2026-05-04 16:03 41.97131 3.96862 36907 ft 390 kts 212°
2026-05-04 16:03 41.92238 3.93677 36902 ft 395 kts 204°
2026-05-04 16:04 41.86838 3.92033 36915 ft 400 kts 195°
2026-05-04 16:04 41.78588 3.90173 36913 ft 401 kts 196°
2026-05-04 16:05 41.73092 3.88901 36912 ft 401 kts 196°
2026-05-04 16:06 41.64838 3.86983 36908 ft 401 kts 196°
2026-05-04 16:07 41.53857 3.84456 36915 ft 402 kts 195°
2026-05-04 16:08 41.42828 3.81944 36909 ft 402 kts 195°
2026-05-04 16:08 41.34522 3.80052 36413 ft 408 kts 195°
2026-05-04 16:09 41.28943 3.78788 35250 ft 405 kts 195°
2026-05-04 16:09 41.23387 3.77530 34097 ft 403 kts 195°
2026-05-04 16:10 41.17923 3.76296 33155 ft 394 kts 195°
2026-05-04 16:11 41.10331 3.73182 31934 ft 373 kts 205°
2026-05-04 16:11 41.07931 3.71924 31518 ft 369 kts 205°
2026-05-04 16:12 41.00863 3.68255 30292 ft 359 kts 205°
2026-05-04 16:12 40.93979 3.64708 29008 ft 348 kts 205°
2026-05-04 16:13 40.89510 3.62411 28184 ft 342 kts 206°
2026-05-04 16:13 40.85112 3.60154 27364 ft 337 kts 206°
2026-05-04 16:14 40.80683 3.57876 26594 ft 354 kts 206°
2026-05-04 16:14 40.76090 3.55525 25735 ft 351 kts 206°
2026-05-04 16:15 40.69334 3.52080 24503 ft 344 kts 206°
2026-05-04 16:16 40.64897 3.49818 23699 ft 340 kts 206°
2026-05-04 16:16 40.58318 3.46468 22372 ft 335 kts 206°
2026-05-04 16:17 40.54003 3.44275 21574 ft 330 kts 205°
2026-05-04 16:18 40.47638 3.41045 20416 ft 324 kts 205°
2026-05-04 16:18 40.45540 3.39983 20035 ft 323 kts 205°
2026-05-04 16:19 40.38613 3.39383 18284 ft 348 kts 181°
2026-05-04 16:19 40.33785 3.39742 17372 ft 345 kts 181°
2026-05-04 16:20 40.26746 3.40186 16520 ft 331 kts 181°
2026-05-04 16:20 40.22134 3.40450 15663 ft 336 kts 181°
2026-05-04 16:21 40.15234 3.39932 14083 ft 330 kts 201°
2026-05-04 16:22 40.11091 3.37305 12836 ft 334 kts 211°
2026-05-04 16:22 40.04984 3.32904 10952 ft 327 kts 210°
2026-05-04 16:23 39.99162 3.28752 9100 ft 310 kts 210°
2026-05-04 16:24 39.92455 3.23995 7289 ft 282 kts 210°
2026-05-04 16:25 39.89069 3.21597 6809 ft 278 kts 210°
2026-05-04 16:26 39.82177 3.16726 5830 ft 280 kts 210°
2026-05-04 16:26 39.77073 3.13125 5090 ft 277 kts 210°
2026-05-04 16:27 39.73695 3.10747 4953 ft 274 kts 210°
2026-05-04 16:28 39.69554 3.06109 4727 ft 251 kts 240°
2026-05-04 16:28 39.67132 3.00727 4292 ft 214 kts 237°
2026-05-04 16:29 39.64185 2.94498 3249 ft 199 kts 237°
2026-05-04 16:30 39.62099 2.90071 2465 ft 175 kts 237°
2026-05-04 16:31 39.60925 2.87594 2049 ft 150 kts 238°
2026-05-04 16:31 39.59357 2.84269 1475 ft 145 kts 238°
2026-05-04 16:32 39.57801 2.80963 1047 ft 142 kts 236°
2026-05-04 16:33 39.56792 2.78802 636 ft 136 kts 237°
2026-05-04 16:33 39.55830 2.76765 204 ft 136 kts 234°
2026-05-04 16:34 39.54946 2.74905 37 ft 81 kts 238°
2026-05-04 16:34 39.54819 2.74547 36 ft 33 kts 257°
2026-05-04 16:35 39.54802 2.74238 37 ft 3 kts 268°
2026-05-04 16:35 39.54802 2.74214 37 ft 0 kts 272°
2026-05-04 16:37 39.54802 2.74211 37 ft 2 kts 273°
2026-05-04 16:37 39.54819 2.74152 36 ft 9 kts 301°
2026-05-04 16:37 39.54917 2.74053 37 ft 9 kts 327°
2026-05-04 16:38 39.55020 2.73972 37 ft 8 kts 331°
2026-05-04 16:39 39.55162 2.73861 37 ft 8 kts 328°
2026-05-04 16:39 39.55163 2.73789 36 ft 11 kts 220°
2026-05-04 16:40 39.55105 2.73772 37 ft 5 kts 205°
2026-05-04 16:40 39.55061 2.73704 37 ft 0 kts 239°
2026-05-04 16:41 39.55054 2.73689 37 ft 1 kts 239°
2026-05-04 16:41 39.55053 2.73687 37 ft 0 kts 239°